DM7LA-WX Weather Reports


Display with metric or nautical units.
time (UTC)temp
F
wind
direction
speed
MPH
gust
MPH
rain 1hr
in
rain 24hr
in
rain mn
in
humidity
%
barometer
mb
20260903025801 61 202 0.0 0.0 0.00 1.37 0.00 87 1009.3
20260903015801 61 225 0.0 0.0 0.00 1.37 0.00 85 1009.7
20260903005801 61 247 0.0 0.0 0.00 1.37 0.00 84 1011.2
20260902235801 62 292 0.0 0.0 0.00 1.37 0.00 82 1011.8
20260902225801 62 247 0.0 0.0 0.00 1.37 0.00 81 1012.4
20260902215802 61 247 0.0 0.0 0.00 1.37 0.00 83 1012.6
20260902205801 62 270 0.0 0.0 0.00 1.37 0.00 86 1013.0
20260902195802 63 225 0.0 0.0 0.00 1.37 0.00 84 1013.3
20260902185802 64 292 0.0 0.0 0.00 1.37 0.00 75 1013.3
20260902175802 65 270 0.0 0.0 0.00 1.37 0.00 76 1013.1
20260902165801 67 270 0.0 0.0 0.00 1.37 0.00 75 1013.2
20260902155801 67 292 0.0 0.0 0.00 1.37 0.00 76 1013.5
20260902145801 67 270 0.0 0.0 0.00 1.37 0.00 76 1013.6
20260902135801 68 292 0.0 0.0 0.00 1.37 0.00 72 1013.4
20260902125801 67 292 0.0 0.0 0.00 1.37 0.00 70 1013.5
20260902115802 68 292 0.0 0.0 0.00 1.37 0.00 75 1013.6
20260902105801 70 292 0.0 0.0 0.00 1.37 0.00 71 1013.5
20260902095801 70 337 0.0 0.0 0.00 1.37 0.00 72 1013.6
20260902085801 65 225 0.0 0.0 0.00 1.37 0.00 78 1013.4
20260902075801 62 225 0.0 0.0 0.00 1.37 0.00 80 1013.1
20260902065801 58 180 0.0 0.0 0.00 1.37 0.00 84 1013.1
20260902055801 57 247 0.0 0.0 0.00 1.37 0.00 86 1013.2
20260902045801 57 157 0.0 0.0 0.00 1.37 0.00 86 1013.1
20260902035801 57 135 0.0 0.0 0.00 1.37 0.00 87 1013.6